Regional Weather Roundup
Issued by NWS Newport/Morehead, NC

Current Version | Previous Version | Text Only | Print | Product List | Glossary On
Versions: 1 2 3 4 5 6 7 8 9 10 11 12 13 14 15 16 17 18 19 20 21 22 23 24 25 26 27 28 29 30 31 32 33 34 35 36 37 38 39 40 41 42 43 44 45 46 47 48 49 50
528
ASUS42 KMHX 241613
RWRMHX
WEATHER ROUNDUP FOR EASTERN NORTH CAROLINA
NATIONAL WEATHER SERVICE NEWPORT/MOREHEAD CITY NC
1200 PM EDT FRI MAR 24 2017

NOTE: "FAIR" INDICATES FEW OR NO CLOUDS BELOW 12,000 FEET
WITH NO SIGNIFICANT WEATHER AND/OR OBSTRUCTIONS TO VISIBILITY

NCZ015>017-031-032-045>047-102-103-241700-
NORTH COAST

CITY           SKY/WX    TMP DP  RH WIND       PRES   REMARKS
EDENTON        SUNNY     60  41  49 SW7       30.52F
ELIZABETH CITY SUNNY     58  42  55 S12       30.52F
KITTY HAWK     NOT AVBL
MANTEO         CLOUDY    58  44  59 S9        30.52F

$$

NCZ045>047-081-094-103-104-241700-
CENTRAL COAST

CITY           SKY/WX    TMP DP  RH WIND       PRES   REMARKS
FRISCO         SUNNY     63  47  55 SW6       30.53F

$$

NCZ095-097-098-100-101-241700-
SOUTHERN COAST

CITY           SKY/WX    TMP DP  RH WIND       PRES   REMARKS
BEAUFORT       SUNNY     67  48  50 SW12      30.53S
CEDAR ISLAND   NOT AVBL
JACKSONVILLE   SUNNY     66  47  50 S13       30.51F
PINEY ISLAND   PTSUNNY  N/A N/A N/A SW12      30.52F
WILMINGTON     SUNNY     67  47  48 SE10      30.52S


$$

NCZ011>013-027>030-043-044-078>080-089-090>093-098-241700-
COASTAL PLAIN

CITY           SKY/WX    TMP DP  RH WIND       PRES   REMARKS
AHOSKIE          N/A     60  38  43 S6        30.51F
CLINTON        SUNNY     65  48  53 S7        30.51F
ELIZABETHTOWN  SUNNY     66  46  47 S8        30.50F
GOLDSBORO      SUNNY     65  43  44 S9        30.49F
GREENVILLE     SUNNY     63  41  45 SW13      30.50F
HAVELOCK       NOT AVBL
KENANSVILLE    SUNNY     64  45  48 S6        30.51F
KINSTON        SUNNY     64  43  45 S8        30.51F
NEW BERN       MOSUNNY   67  45  45 SW12G22   30.52F
RICHLANDS      SUNNY     66  47  50 S14G20    30.51F
ROCKY MOUNT    SUNNY     61  43  51 SW10      30.51F
WASHINGTON     SUNNY     62  42  47 S5        30.51F
WHITEVILLE     SUNNY     67  45  45 S8        30.50F

$$

AMZ130-135-150-152-154-156-158-170-250-252-270-ANZ085-086-088-633-658-670-241700-
MARINE OBSERVATIONS

STATION/POSITION TIME  TEMP    WIND        PRES    WAVE   SWELL
                       AIR SEA DIR/SP/G            HT/PER HT/PER
                 (UTC) (F)     (DEG/KT/KT) (MB)    (FT/S) (FT/S)
CHESAPEAKE LIGHT NOT AVBL
64 E VA BEACH    1550   51 49  160/  6/  6 1033.1    3/ 9   3/ 9
DUCK             1536   50 48  140/  5/  7 1033.0
2 E DUCK         1600      49                N/A     3/10
OREGON INLET     1536   57 48  170/  6/ 10 1033.6
13E OREGON INLT  NOT AVBL
HATTERAS CG      1536   62 52  180/  3/  7 1033.5
DIAMOND BUOY     1550   62 75  190/ 14/ 19 1034.1    5/ 9   5/ 9
CAPE LOOKOUT     1600   64     200/  9/ 11 1033.4
BEAUFORT LAB     1536   61 50  180/  7/  9 1032.8
30 SE NEW RVR IN 1508   64     180/ 10/ 14 1033.8
30 SE NEW RVR IN 1543      68                N/A     3/10
27 SE WRIGHTSVLE 1508   64 62  150/  8/ 12 1032.7
5 SE WRIGHTSVLE  1508   54 56   50/  8/ 12 1033.7
225 S CAPE HAT   1550   63 73   80/ 12/ 16 1033.5    5/10   5/10
41 SE CHARLESTON 1550   69 71  110/ 14/ 17 1031.7    5/ 7   3/ 7

$$




USA.gov is the U.S. government's official web portal to all federal, state and local government web resources and services.